| time (UTC) | temp C | wind direction | speed KPH | gust KPH | rain 1hr cm | rain 24hr cm | rain mn cm | humidity % | barometer mb |
| 20260503204555 | 18 | 115 | 0.0 | 4.8 | 0.00 | 0.03 | 0.03 | 67 | 1013.8 |
| 20260503203053 | 18 | 82 | 3.2 | 9.7 | 0.00 | 0.03 | 0.03 | 68 | 1014.0 |
| 20260503201555 | 18 | 0 | 1.6 | 9.7 | 0.00 | 0.03 | 0.03 | 70 | 1014.2 |
| 20260503200057 | 17 | 257 | 1.6 | 4.8 | 0.00 | 0.03 | 0.03 | 71 | 1014.1 |
| 20260503194619 | 17 | 112 | 0.0 | 4.8 | 0.00 | 0.03 | 0.03 | 73 | 1014.4 |
| 20260503193101 | 16 | 115 | 0.0 | 4.8 | 0.00 | 0.03 | 0.03 | 74 | 1014.5 |
| 20260503191601 | 16 | 0 | 0.0 | 3.2 | 0.00 | 0.03 | 0.03 | 74 | 1014.7 |
| 20260503190052 | 16 | 0 | 0.0 | 8.0 | 0.00 | 0.03 | 0.03 | 75 | 1014.8 |
| 20260503184552 | 16 | 0 | 0.0 | 6.4 | 0.00 | 0.03 | 0.03 | 74 | 1014.7 |
| 20260503183056 | 16 | 0 | 0.0 | 4.8 | 0.00 | 0.03 | 0.03 | 75 | 1014.9 |
| 20260503181605 | 16 | 0 | 0.0 | 6.4 | 0.00 | 0.03 | 0.03 | 75 | 1014.9 |
| 20260503180054 | 16 | 0 | 0.0 | 4.8 | 0.00 | 0.03 | 0.03 | 75 | 1014.8 |
| 20260503174606 | 16 | 113 | 0.0 | 8.0 | 0.00 | 0.03 | 0.03 | 76 | 1014.8 |
| 20260503173054 | 16 | 218 | 0.0 | 4.8 | 0.00 | 0.03 | 0.03 | 79 | 1014.7 |
| 20260503171550 | 16 | 0 | 0.0 | 4.8 | 0.00 | 0.03 | 0.03 | 81 | 1014.5 |
| 20260503170105 | 16 | 128 | 0.0 | 4.8 | 0.00 | 0.03 | 0.03 | 81 | 1014.5 |
| 20260503120105 | 13 | 0 | 0.0 | 1.6 | 0.00 | 0.03 | 0.03 | 94 | 1012.7 |
| 20260503081553 | 14 | 0 | 0.0 | 0.0 | 0.00 | 0.00 | 0.00 | 88 | 1013.4 |
| 20260503071603 | 14 | 0 | 0.0 | 1.6 | 0.00 | 0.00 | 0.00 | 88 | 1013.4 |
| 20260503070108 | 15 | 0 | 0.0 | 1.6 | 0.00 | 0.00 | 0.00 | 88 | 1013.4 |
| 20260503054559 | 13 | 0 | 0.0 | 0.0 | 0.00 | 0.00 | 0.00 | 88 | 1013.1 |
| 20260503053057 | 14 | 0 | 0.0 | 0.0 | 0.00 | 0.00 | 0.00 | 88 | 1013.1 |
| 20260503051552 | 14 | 0 | 0.0 | 0.0 | 0.00 | 0.00 | 0.00 | 87 | 1013.2 |
| 20260503050101 | 15 | 0 | 0.0 | 0.0 | 0.00 | 0.00 | 0.00 | 86 | 1013.2 |
| 20260503044618 | 15 | 0 | 0.0 | 0.0 | 0.00 | 0.00 | 0.00 | 85 | 1013.1 |
| 20260503043058 | 15 | 0 | 0.0 | 0.0 | 0.00 | 0.00 | 0.00 | 84 | 1013.1 |
| 20260503041614 | 15 | 0 | 0.0 | 0.0 | 0.00 | 0.00 | 0.00 | 83 | 1012.8 |
| 20260503040054 | 15 | 0 | 0.0 | 1.6 | 0.00 | 0.00 | 0.00 | 83 | 1012.5 |
| 20260503034557 | 16 | 0 | 0.0 | 3.2 | 0.00 | 0.00 | 0.00 | 82 | 1012.4 |
| 20260503033104 | 16 | 0 | 0.0 | 6.4 | 0.00 | 0.00 | 0.00 | 81 | 1012.0 |
| 20260503031553 | 16 | 0 | 1.6 | 4.8 | 0.00 | 0.00 | 0.00 | 80 | 1011.8 |
| 20260503030100 | 16 | 169 | 0.0 | 9.7 | 0.00 | 0.00 | 0.00 | 78 | 1011.7 |
| 20260503024601 | 17 | 244 | 0.0 | 4.8 | 0.00 | 0.00 | 0.00 | 76 | 1011.5 |
| 20260503023056 | 17 | 177 | 0.0 | 6.4 | 0.00 | 0.00 | 0.00 | 75 | 1011.2 |
| 20260503021557 | 17 | 0 | 0.0 | 12.9 | 0.00 | 0.00 | 0.00 | 75 | 1011.0 |
| 20260503020056 | 18 | 246 | 1.6 | 9.7 | 0.00 | 0.00 | 0.00 | 73 | 1010.9 |
| 20260503014552 | 18 | 0 | 0.0 | 4.8 | 0.00 | 0.00 | 0.00 | 72 | 1010.8 |
| 20260503013058 | 19 | 284 | 3.2 | 14.5 | 0.00 | 0.00 | 0.00 | 70 | 1010.6 |
| 20260503011602 | 20 | 218 | 1.6 | 9.7 | 0.00 | 0.00 | 0.00 | 68 | 1010.8 |
| 20260503010058 | 20 | 0 | 1.6 | 8.0 | 0.00 | 0.00 | 0.00 | 67 | 1010.7 |
| 20260503004601 | 21 | 0 | 0.0 | 9.7 | 0.00 | 0.00 | 0.00 | 66 | 1010.7 |
| 20260503003106 | 21 | 190 | 0.0 | 11.3 | 0.00 | 0.00 | 0.00 | 64 | 1010.9 |
| 20260503001604 | 21 | 143 | 0.0 | 9.7 | 0.00 | 0.00 | 0.00 | 64 | 1010.9 |
| 20260503000055 | 22 | 243 | 1.6 | 6.4 | 0.00 | 0.00 | 0.00 | 63 | 1010.9 |
| 20260502234555 | 22 | 153 | 3.2 | 9.7 | 0.00 | 0.00 | 0.00 | 64 | 1011.0 |
| 20260502233048 | 22 | 0 | 1.6 | 16.1 | 0.00 | 0.00 | 0.00 | 64 | 1011.0 |
| 20260502231556 | 22 | 255 | 1.6 | 12.9 | 0.00 | 0.00 | 0.00 | 64 | 1010.9 |
| 20260502230051 | 22 | 284 | 1.6 | 11.3 | 0.00 | 0.00 | 0.00 | 62 | 1011.1 |
| 20260502224551 | 22 | 259 | 1.6 | 11.3 | 0.00 | 0.00 | 0.00 | 62 | 1011.5 |
| 20260502223049 | 22 | 229 | 4.8 | 16.1 | 0.00 | 0.00 | 0.00 | 63 | 1011.7 |
| 20260502221548 | 23 | 182 | 4.8 | 16.1 | 0.00 | 0.00 | 0.00 | 61 | 1012.0 |
| 20260502220135 | 23 | 238 | 0.0 | 12.9 | 0.00 | 0.00 | 0.00 | 62 | 1012.2 |
| 20260502214549 | 23 | 0 | 3.2 | 14.5 | 0.00 | 0.00 | 0.00 | 62 | 1012.3 |
| 20260502213058 | 23 | 262 | 3.2 | 17.7 | 0.00 | 0.00 | 0.00 | 61 | 1012.4 |
| 20260502211556 | 23 | 150 | 3.2 | 11.3 | 0.00 | 0.00 | 0.00 | 63 | 1012.5 |
| 20260502210101 | 22 | 225 | 1.6 | 12.9 | 0.00 | 0.00 | 0.00 | 64 | 1012.6 |